Washington, PA

6:54 PM EDT on April 28, 2017 (GMT -0400)
Washington County

Weather History for KAFJ - February, 2013

Change the Weather History Date:

Thursday, February 28, 2013

  Actual Average Record
Temperature  
Mean Temperature 32 °F -  
Max Temperature 33 °F 41 °F 64 °F (2016)
Min Temperature 30 °F 24 °F -2 °F (2014)
Degree Days  
Heating Degree Days 34    
Moisture  
Dew Point 29 °F    
Average Humidity 87    
Maximum Humidity 93    
Minimum Humidity 80    
Precipitation  
Precipitation 0.00 in - - ()
Sea Level Pressure  
Sea Level Pressure 29.71 in    
Wind  
Wind Speed 9 mph (WSW)    
Max Wind Speed 13 mph    
Max Gust Speed 18 mph    
Visibility 7 miles    
Events      
Averages and records for this station are not official NWS values.
T = Trace of Precipitation, MM = Missing Value Source: NWS Daily Summary

Daily Weather History Graph

Daily Weather History Graph

Search for Another Location

Airport or City:

Trip Planner

Search our weather history database for the weather conditions in past years. The results will help you decide how hot, cold, wet, or windy it might be!

Date:

Astronomy

Feb. 28, 2013 Rise Set
Actual Time 6:55 AM EST 6:12 PM EST
Civil Twilight 6:28 AM EST 6:39 PM EST
Nautical Twilight 5:57 AM EST 7:10 PM EST
Astronomical Twilight 5:25 AM EST 7:42 PM EST
Moon 9:37 PM EST 8:04 AM EST
Length of Visible Light 12h 10m
Length of Day
11h 16m
Waning Gibbous, 91% of the Moon is Illuminated
Feb 28
Waning Gibbous
Mar 4
Last Quarter
Mar 11
New
Mar 19
First Quarter
Mar 27
Full

Hourly Weather History & Observations

Time (EST) Temp. Windchill Dew Point Humidity Pressure Visibility Wind Dir Wind Speed Gust Speed Precip Events Conditions
12:15 AM 32.0 °F 26.4 °F 30.2 °F 93% 29.68 in 2.5 mi SW 5.8 mph - N/A   Overcast
12:35 AM 32.0 °F 24.2 °F 30.2 °F 93% 29.67 in 7.0 mi SW 9.2 mph - N/A   Overcast
12:55 AM 32.0 °F 24.8 °F 30.2 °F 93% 29.68 in 3.0 mi West 8.1 mph - N/A   Overcast
1:15 AM 32.0 °F 23.6 °F 30.2 °F 93% 29.68 in 10.0 mi SW 10.4 mph - N/A   Overcast
1:35 AM 32.0 °F 24.8 °F 28.4 °F 87% 29.68 in 10.0 mi WSW 8.1 mph - N/A   Overcast
1:55 AM 32.0 °F 24.2 °F 28.4 °F 87% 29.68 in 10.0 mi SW 9.2 mph - N/A   Overcast
2:15 AM 32.0 °F 24.8 °F 28.4 °F 87% 29.67 in 10.0 mi SW 8.1 mph - N/A   Mostly Cloudy
2:35 AM 32.0 °F 23.6 °F 28.4 °F 87% 29.66 in 10.0 mi SW 10.4 mph - N/A   Overcast
2:55 AM 32.0 °F 24.8 °F 28.4 °F 87% 29.66 in 10.0 mi SW 8.1 mph 17.3 mph N/A   Overcast
3:15 AM 32.0 °F 24.2 °F 28.4 °F 87% 29.65 in 10.0 mi SW 9.2 mph 16.1 mph N/A   Overcast
3:35 AM 32.0 °F 24.8 °F 28.4 °F 87% 29.65 in 10.0 mi SW 8.1 mph - N/A   Overcast
3:55 AM 32.0 °F 24.8 °F 28.4 °F 87% 29.65 in 10.0 mi SW 8.1 mph - N/A   Overcast
4:15 AM 32.0 °F 25.6 °F 28.4 °F 87% 29.65 in 10.0 mi SW 6.9 mph - N/A   Overcast
4:55 AM 32.0 °F 24.2 °F 28.4 °F 87% 29.65 in 10.0 mi SW 9.2 mph - N/A   Overcast
5:35 AM 32.0 °F 23.6 °F 28.4 °F 87% 29.65 in 10.0 mi SW 10.4 mph - N/A   Overcast
5:55 AM 32.0 °F 23.6 °F 28.4 °F 87% 29.65 in 10.0 mi SW 10.4 mph - N/A   Overcast
6:15 AM 32.0 °F 24.2 °F 28.4 °F 87% 29.65 in 10.0 mi SW 9.2 mph 16.1 mph N/A   Overcast
6:35 AM 32.0 °F 24.8 °F 26.6 °F 80% 29.65 in 10.0 mi WSW 8.1 mph - N/A   Overcast
6:55 AM 32.0 °F 23.6 °F 26.6 °F 80% 29.65 in 10.0 mi WSW 10.4 mph - N/A   Overcast
7:15 AM 32.0 °F 26.4 °F 28.4 °F 87% 29.65 in 10.0 mi SW 5.8 mph - N/A   Overcast
7:35 AM 30.2 °F 24.3 °F 28.4 °F 93% 29.65 in 0.8 mi WSW 5.8 mph - N/A   Overcast
7:55 AM 30.2 °F 22.6 °F 28.4 °F 93% 29.66 in 7.0 mi WSW 8.1 mph - N/A   Overcast
8:15 AM 32.0 °F 23.0 °F 28.4 °F 87% 29.67 in 10.0 mi WSW 11.5 mph 17.3 mph N/A   Overcast
8:35 AM 32.0 °F 22.5 °F 28.4 °F 87% 29.67 in 10.0 mi WSW 12.7 mph - N/A   Overcast
8:55 AM 32.0 °F 23.6 °F 26.6 °F 80% 29.67 in 10.0 mi WSW 10.4 mph 17.3 mph N/A   Overcast
9:15 AM 32.0 °F 24.8 °F 26.6 °F 80% 29.67 in 10.0 mi SW 8.1 mph - N/A   Overcast
9:35 AM 32.0 °F 22.5 °F 26.6 °F 80% 29.67 in 9.0 mi SW 12.7 mph 17.3 mph N/A   Overcast
9:55 AM 30.2 °F 20.2 °F 26.6 °F 86% 29.67 in 7.0 mi SW 12.7 mph 16.1 mph N/A   Overcast
10:15 AM 32.0 °F 23.6 °F 26.6 °F 80% 29.67 in 5.0 mi SW 10.4 mph 17.3 mph N/A   Overcast
10:35 AM 30.2 °F 20.8 °F 26.6 °F 86% 29.67 in 5.0 mi SW 11.5 mph - N/A   Overcast
10:55 AM 32.0 °F 23.6 °F 28.4 °F 87% 29.68 in 9.0 mi SW 10.4 mph - N/A   Overcast
11:15 AM 32.0 °F 24.2 °F 28.4 °F 87% 29.68 in 2.5 mi SW 9.2 mph - N/A   Overcast
11:35 AM 32.0 °F 24.2 °F 28.4 °F 87% 29.69 in 1.2 mi SW 9.2 mph - N/A   Overcast
11:55 AM 32.0 °F 25.6 °F 30.2 °F 93% 29.68 in 1.5 mi SW 6.9 mph - N/A   Overcast
12:15 PM 32.0 °F 25.6 °F 30.2 °F 93% 29.68 in 1.2 mi SW 6.9 mph - N/A   Overcast
12:35 PM 32.0 °F 23.6 °F 30.2 °F 93% 29.68 in 1.5 mi SW 10.4 mph - N/A   Overcast
12:55 PM 32.0 °F 24.2 °F 28.4 °F 87% 29.68 in 2.0 mi SW 9.2 mph - N/A   Overcast
1:15 PM 32.0 °F 23.0 °F 30.2 °F 93% 29.68 in 3.0 mi WSW 11.5 mph - N/A   Overcast
1:35 PM 33.8 °F 26.4 °F 28.4 °F 81% 29.67 in 2.5 mi SW 9.2 mph - N/A   Overcast
1:55 PM 33.8 °F 25.3 °F 30.2 °F 87% 29.67 in 2.5 mi WSW 11.5 mph - N/A   Overcast
2:15 PM 33.8 °F 25.8 °F 30.2 °F 87% 29.67 in 3.0 mi SW 10.4 mph 18.4 mph N/A   Overcast
2:35 PM 33.8 °F 25.8 °F 30.2 °F 87% 29.68 in 3.0 mi WSW 10.4 mph - N/A   Overcast
2:55 PM 33.8 °F 25.3 °F 30.2 °F 87% 29.68 in 5.0 mi WSW 11.5 mph - N/A   Overcast
3:15 PM 33.8 °F 25.3 °F 30.2 °F 87% 29.68 in 5.0 mi WSW 11.5 mph 16.1 mph N/A   Overcast
3:35 PM 33.8 °F 26.4 °F 30.2 °F 87% 29.69 in 5.0 mi WSW 9.2 mph 16.1 mph N/A   Overcast
3:55 PM 33.8 °F 27.0 °F 30.2 °F 87% 29.69 in 5.0 mi WSW 8.1 mph - N/A   Overcast
4:15 PM 33.8 °F 26.4 °F 30.2 °F 87% 29.70 in 8.0 mi WSW 9.2 mph - N/A   Overcast
4:35 PM 33.8 °F 27.7 °F 30.2 °F 87% 29.70 in 10.0 mi WSW 6.9 mph - N/A   Overcast
4:55 PM 33.8 °F 25.3 °F 30.2 °F 87% 29.71 in 10.0 mi WSW 11.5 mph - N/A   Overcast
5:15 PM 33.8 °F 26.4 °F 30.2 °F 87% 29.72 in 10.0 mi WSW 9.2 mph - N/A   Overcast
5:35 PM 33.8 °F 27.0 °F 30.2 °F 87% 29.73 in 10.0 mi West 8.1 mph - N/A   Overcast
5:55 PM 33.8 °F 27.0 °F 30.2 °F 87% 29.74 in 5.0 mi West 8.1 mph - N/A   Overcast
6:15 PM 33.8 °F 28.6 °F 30.2 °F 87% 29.75 in 9.0 mi West 5.8 mph - N/A   Overcast
6:35 PM 33.8 °F 27.0 °F 30.2 °F 87% 29.76 in 10.0 mi West 8.1 mph - N/A   Overcast
6:55 PM 33.8 °F 28.6 °F 30.2 °F 87% 29.78 in 2.5 mi West 5.8 mph - N/A   Overcast
7:15 PM 33.8 °F 28.6 °F 30.2 °F 87% 29.79 in 10.0 mi West 5.8 mph - N/A   Overcast
7:35 PM 33.8 °F 25.8 °F 30.2 °F 87% 29.80 in 10.0 mi West 10.4 mph - N/A   Overcast
7:55 PM 33.8 °F 27.7 °F 30.2 °F 87% 29.81 in 10.0 mi West 6.9 mph - N/A   Overcast
8:15 PM 33.8 °F 27.7 °F 30.2 °F 87% 29.81 in 10.0 mi West 6.9 mph - N/A   Overcast
8:35 PM 33.8 °F 27.7 °F 30.2 °F 87% 29.82 in 10.0 mi West 6.9 mph - N/A   Overcast
8:55 PM 33.8 °F 27.0 °F 30.2 °F 87% 29.82 in 10.0 mi WNW 8.1 mph - N/A   Overcast
9:15 PM 33.8 °F 26.4 °F 30.2 °F 87% 29.83 in 10.0 mi West 9.2 mph - N/A   Mostly Cloudy
9:35 PM 33.8 °F 27.7 °F 30.2 °F 87% 29.83 in 10.0 mi West 6.9 mph - N/A   Overcast
9:55 PM 33.8 °F 27.0 °F 30.2 °F 87% 29.83 in 10.0 mi West 8.1 mph - N/A   Overcast
10:15 PM 33.8 °F 27.7 °F 30.2 °F 87% 29.83 in 10.0 mi West 6.9 mph - N/A   Overcast
10:35 PM 33.8 °F 27.0 °F 28.4 °F 81% 29.83 in 10.0 mi West 8.1 mph - N/A   Overcast
11:15 PM 32.0 °F 26.4 °F 30.2 °F 93% 29.84 in 7.0 mi West 5.8 mph - N/A   Overcast
11:55 PM 30.2 °F 22.6 °F 28.4 °F 93% 29.84 in 5.0 mi West 8.1 mph - N/A   Overcast